Probability
0 0 0 0 0 0 0 0 0 0 0 0 0 0 0 0 1 0 0 0 0 0 0 0 1 2 2 1 0 0 1 1 1 0 1 1 0 0 0 0 0 0 0 0 0 1 1 0 0
0 0 0 0 0 0 0 0 0 0 0 0 0 0 0 0 1 0 0 0 0 0 0 0 0 1 1 0 0 0 0 0 0 0 1 2 1 0 0 0 0 0 0 0 0 1 2 1 0
0 0 0 0 0 0 0 0 0 0 0 0 0 0 0 0 0 0 0 0 1 1 1 0 0 0 0 0 0 0 0 0 0 0 1 1 1 0 0 0 0 0 0 0 0 1 1 1 1
0 0 0 0 0 0 0 0 0 0 0 0 0 0 0 0 0 0 0 0 1 1 1 1 1 1 0 0 0 0 0 0 1 1 0 0 0 0 0 0 0 0 0 0 0 0 0 1 2
0 0 0 0 0 0 0 0 0 0 0 0 0 0 0 0 0 0 0 0 0 0 1 1 2 2 1 0 0 0 0 0 1 1 0 0 0 0 0 0 0 0 1 0 0 0 0 1 2
0 0 0 0 0 0 0 0 0 0 0 0 0 0 0 0 0 0 0 0 0 0 0 2 3 3 2 1 0 0 0 0 0 0 0 0 0 0 0 0 0 0 0 0 0 0 0 0 1
0 0 0 0 0 0 0 0 0 0 0 0 0 0 0 0 0 0 0 0 0 0 0 2 3 3 2 1 0 0 0 0 0 0 0 0 0 0 0 0 0 0 0 0 0 0 0 0 0
0 0 0 0 0 0 0 0 0 0 0 0 0 0 0 0 0 0 0 0 0 0 0 1 2 1 1 0 0 0 0 0 0 0 0 0 0 0 0 0 0 0 0 0 0 0 0 0 0
0 0 0 0 0 0 0 0 1 1 1 0 0 0 0 0 0 0 0 0 0 0 0 0 0 0 0 0 0 0 0 0 0 0 0 0 0 0 0 0 0 0 0 0 0 0 0 0 0
0 0 0 0 0 0 0 1 2 2 1 1 1 0 0 0 0 0 0 0 0 0 0 0 0 0 0 0 0 0 0 0 0 0 0 0 0 0 0 0 0 0 0 1 0 0 0 0 0
0 0 0 0 0 0 0 1 2 2 2 3 3 2 1 1 0 0 0 0 0 0 0 0 0 0 0 0 0 0 0 0 0 0 0 0 0 0 0 0 0 0 0 0 0 0 0 0 0
0 0 0 0 0 0 0 0 1 2 2 4 5 5 3 1 0 0 0 0 0 0 0 0 0 0 0 0 0 0 0 0 0 0 0 0 0 0 0 0 0 0 0 0 0 0 0 0 0
0 0 0 0 0 0 0 1 2 3 4 5 6 5 3 1 0 0 0 0 0 0 0 0 0 0 0 0 0 0 0 0 0 0 0 0 0 0 0 0 0 0 0 0 0 0 0 0 0
0 0 0 1 1 1 1 1 2 4 5 6 5 4 2 0 0 0 0 0 0 0 0 0 0 0 0 0 0 0 0 0 0 0 0 0 0 0 0 0 0 0 0 0 0 0 0 0 0
0 0 0 1 2 2 2 1 2 5 7 6 4 2 0 0 0 0 0 1 1 1 0 0 0 0 0 0 0 0 0 0 0 0 0 0 0 0 0 0 0 0 0 0 0 0 0 0 0
0 0 0 0 1 1 2 2 3 6 8 7 4 1 0 0 0 0 1 2 2 2 1 0 0 0 0 0 0 0 0 0 0 0 0 0 0 0 0 0 0 0 0 0 0 0 0 0 0
0 0 0 0 0 0 1 1 4 7 9 7 4 1 0 0 0 0 1 2 2 2 1 0 0 0 0 0 0 0 0 0 0 0 0 0 0 0 0 0 0 0 0 0 0 0 0 0 0
0 0 0 0 0 0 0 1 3 7 9 8 4 1 0 0 0 0 0 1 1 1 0 0 0 0 0 0 0 0 0 0 0 0 0 0 0 0 0 0 0 0 0 0 0 0 0 0 0
0 0 0 0 0 0 0 0 2 5 7 7 5 2 0 0 0 0 0 0 0 0 0 0 0 0 0 0 0 0 0 0 0 0 0 0 0 0 0 0 0 0 0 0 0 0 0 0 0
0 0 0 0 0 0 0 0 1 2 4 5 5 4 2 1 0 0 0 0 0 0 1 1 0 0 0 0 0 0 0 0 0 0 0 0 0 0 0 0 0 0 0 0 0 0 0 0 0
0 0 0 0 0 0 0 0 0 1 1 1 2 3 2 1 0 0 0 0 0 1 2 1 0 0 0 0 0 0 0 0 0 0 0 0 0 0 0 0 0 0 0 0 0 0 0 0 0
0 0 0 0 0 0 0 0 0 0 0 0 0 1 1 1 0 0 0 0 0 1 2 1 0 0 1 1 0 0 0 0 0 0 0 0 0 0 0 0 0 0 0 0 0 0 0 0 0
0 0 0 0 0 0 0 0 0 0 0 0 0 0 0 0 0 0 0 1 1 2 2 2 1 1 2 2 1 0 0 0 0 0 0 0 0 1 0 0 0 0 0 0 0 0 0 0 0
0 0 0 0 0 0 0 0 0 0 0 0 0 0 0 0 0 1 1 2 4 4 3 3 3 2 2 2 1 0 0 0 0 0 0 0 0 0 0 0 0 0 0 0 0 0 0 0 0
0 0 0 0 0 0 0 0 0 1 1 1 0 0 0 0 1 2 3 3 4 4 5 5 4 3 1 1 0 0 0 1 1 1 1 1 0 0 0 0 0 0 0 0 0 0 0 0 1
0 0 0 0 0 0 0 0 1 2 2 2 1 0 0 0 1 2 2 3 4 5 6 5 4 3 2 1 0 0 0 1 2 1 1 0 0 0 1 1 0 0 0 0 0 0 0 0 1
0 0 0 0 0 0 0 0 1 2 3 3 2 1 1 0 0 1 1 1 3 5 5 4 4 4 4 3 1 0 0 1 1 1 0 0 0 0 1 2 1 0 0 0 0 0 0 0 1
0 0 0 0 0 0 0 0 1 2 3 3 3 3 2 1 0 0 0 2 3 4 4 3 3 4 4 4 3 2 1 2 1 1 0 0 0 0 1 2 1 0 0 0 0 0 0 0 1
0 0 0 0 0 0 0 0 1 3 4 3 3 3 2 1 0 0 2 5 6 4 3 3 3 3 3 4 5 5 4 3 3 2 1 1 2 1 1 1 1 1 1 1 2 1 1 1 2
0 0 0 0 0 0 0 0 1 4 5 4 3 3 2 1 0 1 3 7 8 5 3 3 3 3 3 4 6 6 5 4 3 3 3 4 4 4 3 2 1 2 3 4 4 4 3 3 4
Wind_Speed
7 6 2 1 3 4 2 2 1 2 3 3 4 5 5 3 1 2 1 4 6 5 4 6 8 9 10 10 10 11 11 11 11 12 12 12 11 11 11 10 9 9 9 9 9 8 8 8 7
5 5 1 2 4 3 3 2 3 3 2 2 4 4 5 4 3 4 3 4 6 6 4 5 9 9 9 10 10 10 10 11 11 11 11 11 11 10 11 10 9 9 9 9 8 7 7 7 7
6 3 1 3 2 1 1 1 3 3 3 2 3 4 4 3 3 3 3 7 7 5 4 5 9 9 9 9 9 9 10 10 10 11 10 10 10 10 10 9 8 8 8 8 7 6 6 5 6
3 1 2 4 2 1 2 2 3 3 3 5 3 4 3 3 2 4 7 7 7 5 3 4 9 9 9 9 9 9 9 9 9 9 9 9 9 9 9 8 8 7 7 6 6 6 5 5 5
1 2 4 3 2 2 1 2 3 3 2 4 4 4 3 4 6 8 7 6 6 4 3 3 7 8 8 8 8 8 8 8 8 8 8 8 8 8 8 7 7 6 5 5 5 6 6 5 5
2 3 4 2 2 2 2 2 3 4 3 3 3 3 3 3 5 6 6 5 5 4 3 3 6 8 8 8 8 7 7 7 7 7 7 7 6 6 7 6 6 5 5 5 6 6 5 5 5
2 3 2 1 1 1 2 2 3 3 3 2 2 3 2 2 3 5 5 5 4 4 3 2 2 4 6 6 7 6 6 6 6 6 6 6 6 6 6 6 6 5 5 5 5 5 5 4 4
2 3 2 0 1 1 2 2 2 3 3 3 3 4 3 2 4 5 5 4 4 3 3 2 2 2 2 3 5 5 5 5 5 5 5 6 5 5 5 4 4 5 4 4 4 4 4 4 4
2 4 1 2 3 2 3 3 2 3 4 3 3 3 4 8 7 6 5 4 3 3 2 2 2 2 2 2 2 3 4 4 4 3 4 4 3 3 2 2 4 4 4 3 3 3 4 4 3
3 2 3 3 4 4 4 3 3 3 4 3 5 6 8 8 7 6 5 4 3 3 2 2 2 2 1 1 2 1 2 2 2 2 2 2 2 2 2 2 3 3 3 3 4 4 4 3 2
2 3 2 0 3 5 4 3 2 5 2 3 6 9 8 8 6 5 4 4 3 3 2 2 2 2 2 1 1 1 1 1 1 2 2 2 2 2 2 2 2 3 3 2 3 3 2 2 2
1 2 1 2 3 4 4 4 3 2 3 5 8 10 9 8 6 5 5 4 3 3 3 2 2 2 2 1 1 1 1 1 1 1 2 1 1 1 1 1 1 1 1 1 2 1 2 2 2
1 1 1 4 4 5 6 4 4 2 5 7 9 9 8 7 5 4 4 3 3 3 3 3 3 3 2 2 1 1 1 1 1 1 1 2 1 1 1 1 1 1 1 1 1 1 2 2 2
1 2 3 4 4 3 5 3 4 3 6 8 8 7 6 6 5 4 4 4 4 4 3 3 3 3 3 2 1 1 1 1 1 1 1 2 1 1 1 0 1 1 1 1 1 1 1 1 1
2 5 5 3 3 2 5 3 1 6 7 7 7 6 6 5 5 5 5 5 5 4 4 4 4 3 3 2 2 1 1 1 1 1 1 2 2 2 1 1 0 0 1 1 1 1 1 1 2
4 4 2 1 2 3 4 1 3 7 8 7 6 6 5 4 5 5 5 4 4 4 4 4 4 4 3 2 2 1 1 1 1 1 1 2 2 2 2 1 1 0 1 1 1 1 1 1 1
4 2 0 2 2 3 3 3 4 7 8 6 6 6 5 4 4 4 5 5 5 5 4 4 3 4 3 2 1 1 1 1 1 1 1 1 2 2 2 1 1 1 1 1 1 1 1 1 1
1 1 1 2 2 4 3 3 4 7 8 7 5 5 5 6 6 5 5 5 4 4 4 3 3 3 3 2 1 1 1 0 0 1 1 2 2 2 2 1 1 1 1 1 1 1 1 1 0
3 2 2 2 2 3 3 3 5 8 7 6 6 6 6 6 4 4 4 5 4 4 4 4 3 3 3 2 2 1 1 1 0 1 1 1 2 2 2 1 1 2 1 1 1 1 1 1 1
3 1 1 2 1 2 1 2 3 7 9 9 9 8 8 6 4 4 4 5 5 5 5 4 4 3 3 2 2 1 1 1 1 0 0 1 1 2 2 2 2 2 2 1 1 2 1 1 1
1 4 3 1 1 3 2 4 1 3 5 6 7 7 8 9 8 6 6 6 6 6 6 5 4 4 3 3 2 2 2 1 1 1 0 1 1 1 2 2 2 2 2 2 2 2 2 1 0
2 3 3 3 3 2 2 2 5 3 4 7 8 8 9 9 8 7 7 7 7 7 6 5 5 4 4 4 3 3 2 1 1 1 1 1 0 0 1 2 2 2 2 2 2 2 2 2 1
3 2 4 3 3 2 2 1 7 1 4 8 9 10 10 10 10 9 9 8 7 6 6 5 5 4 4 4 5 4 2 2 1 1 0 0 0 0 1 1 2 2 2 2 2 2 2 2 2
4 6 6 6 5 1 2 2 7 4 7 6 8 9 10 9 10 9 7 6 6 5 5 6 5 5 4 4 4 4 4 3 2 1 1 1 0 0 0 1 1 2 2 2 2 2 2 2 2
5 6 4 5 4 4 2 2 9 7 6 6 7 9 9 9 9 9 8 8 7 7 7 6 6 5 5 4 4 4 4 4 4 3 2 2 1 1 1 1 1 1 2 2 2 2 2 2 2
4 7 7 4 3 4 2 4 8 5 4 4 4 5 6 8 8 9 10 9 9 8 8 7 7 6 6 5 4 4 4 3 3 3 2 2 2 2 2 2 2 1 2 2 2 2 2 2 2
6 3 5 6 2 1 5 6 9 2 1 0 1 3 6 7 8 9 9 9 9 9 9 9 8 7 6 6 5 4 4 4 4 3 3 2 2 2 2 2 2 2 2 1 2 2 2 2 2
5 8 6 5 4 2 5 4 5 5 3 2 1 3 4 5 6 6 7 8 8 8 7 7 7 7 6 6 5 5 5 5 4 3 3 3 3 2 2 2 2 2 2 2 2 2 2 2 2
3 4 5 4 4 6 2 7 6 6 5 4 4 3 4 4 5 6 6 6 6 6 6 6 7 6 5 6 5 4 4 4 3 4 4 4 3 3 3 2 2 2 2 2 2 2 2 2 2
4 6 7 5 3 4 4 9 5 3 4 3 3 3 3 4 3 4 5 5 5 6 7 7 7 7 6 5 5 5 4 4 4 5 4 4 4 3 3 3 3 3 3 3 3 4 3 3 3
Wind_Direction
153 143 151 139 49 43 358 333 16 33 27 21 54 67 76 65 82 122 98 121 118 117 121 128 121 119 117 115 115 114 116 118 118 118 118 119 120 120 121 122 121 120 121 120 119 118 119 117 114
146 156 171 59 70 42 336 349 46 51 118 123 69 63 64 58 57 99 112 122 118 118 113 126 126 124 123 122 120 118 118 119 120 120 119 119 119 120 120 120 119 118 117 116 116 115 114 116 113
160 185 94 66 77 148 240 17 102 90 85 56 61 55 61 64 87 120 129 124 110 110 109 130 128 126 126 126 125 123 119 119 119 119 120 122 122 122 121 120 120 118 117 116 116 113 109 108 108
155 96 51 58 33 297 179 169 130 106 52 42 72 61 53 48 105 121 119 119 113 111 111 129 131 127 126 128 126 121 117 116 114 116 120 121 121 120 120 120 118 115 116 117 116 109 104 104 108
90 79 51 31 357 10 77 119 96 75 56 44 65 77 44 32 90 107 112 115 123 120 115 123 133 131 129 128 125 121 120 119 117 118 119 118 118 117 116 114 112 108 105 106 104 104 104 104 105
59 64 67 24 359 55 71 70 79 70 70 64 66 76 51 76 103 114 112 115 122 122 117 117 139 137 134 130 125 124 122 119 115 114 112 115 118 117 116 115 113 106 101 98 96 105 105 104 101
98 80 89 113 31 76 129 90 89 93 79 66 89 87 77 91 110 112 105 106 107 105 105 97 105 125 134 135 132 131 128 122 117 112 107 112 114 111 106 103 103 104 101 96 96 102 100 97 95
131 93 60 63 146 153 129 91 98 92 85 91 88 119 159 155 113 96 90 93 100 97 99 98 84 75 88 112 137 140 136 129 121 116 108 103 98 95 96 89 97 99 95 96 105 103 95 90 93
116 71 82 205 179 172 131 107 84 66 93 74 69 105 133 128 114 100 92 89 112 124 102 101 98 94 88 102 138 130 134 126 116 106 104 82 59 54 73 84 90 89 89 95 100 98 90 78 73
103 110 230 218 181 154 142 131 134 90 77 68 70 83 112 124 126 127 133 142 151 155 148 127 124 113 102 119 84 63 67 68 71 73 76 65 58 44 56 64 65 63 69 78 72 68 69 61 51
145 184 237 180 137 133 129 113 95 114 117 160 143 135 132 131 133 140 148 150 163 158 162 148 149 135 122 105 103 77 66 60 64 81 84 73 55 45 39 39 27 27 39 46 48 48 52 57 59
150 253 195 126 113 121 131 116 91 114 170 143 141 141 139 144 152 159 162 164 153 154 167 154 152 138 129 115 112 114 110 103 100 105 116 107 78 49 39 38 20 26 34 42 50 51 46 52 58
90 315 76 106 100 110 100 95 104 83 111 119 129 136 146 154 158 160 161 157 152 162 170 165 156 155 150 133 142 126 133 142 142 137 144 144 141 133 73 36 30 25 41 57 63 60 47 42 50
194 71 79 85 89 91 103 89 93 132 127 127 138 150 161 165 164 159 161 166 171 176 177 166 163 162 152 151 151 147 145 155 161 167 169 163 155 152 132 68 29 21 42 48 86 85 62 44 57
82 69 50 68 93 103 101 62 141 157 142 142 153 161 166 171 169 178 183 181 181 179 174 171 172 158 157 165 176 168 165 158 180 186 177 176 171 165 156 141 43 5 81 74 77 61 60 65 66
52 59 47 283 134 134 116 209 181 156 154 162 169 175 180 185 188 191 185 181 179 172 174 184 179 162 165 169 174 166 168 164 188 183 184 189 184 175 160 160 202 155 115 102 92 69 63 49 51
37 72 244 289 193 148 148 216 184 164 162 173 182 185 187 191 200 197 188 182 179 178 176 178 169 163 165 162 163 167 153 166 175 167 186 198 192 179 168 174 184 144 115 103 115 94 112 95 54
225 200 227 243 225 157 183 229 183 173 174 183 186 189 193 202 210 194 183 179 174 168 163 164 160 159 149 136 127 102 93 152 156 183 197 198 196 182 166 165 168 146 125 105 109 123 103 121 101
166 174 234 251 215 162 203 229 197 181 184 188 193 198 206 216 210 186 182 178 170 165 166 170 164 159 142 138 151 147 187 228 228 218 201 199 196 189 168 171 152 148 144 146 133 131 110 79 98
139 162 269 318 70 134 171 274 211 188 198 198 197 201 207 208 193 188 185 183 183 182 179 178 178 169 166 164 159 159 158 195 217 266 190 199 190 185 181 169 167 156 144 131 133 136 122 91 91
176 182 200 204 35 48 61 342 269 215 203 205 205 202 203 204 200 195 191 194 191 192 187 186 182 172 170 156 115 89 66 37 26 2 321 265 194 186 165 173 173 168 162 169 180 167 151 158 100
243 221 169 142 93 346 59 303 290 241 216 215 213 207 209 209 201 198 195 197 199 199 185 182 178 173 170 155 150 153 163 188 221 216 237 321 19 202 178 179 178 170 166 175 202 173 164 156 176
192 105 103 101 108 47 17 117 289 276 239 236 220 214 212 206 199 199 199 199 200 191 184 181 176 180 175 167 171 169 175 186 183 163 138 38 353 264 182 184 178 176 176 185 193 173 172 170 173
118 74 57 51 67 13 256 162 280 240 225 240 220 213 210 202 197 198 196 187 188 180 177 176 177 189 184 179 177 177 181 180 171 197 199 216 240 303 204 176 174 185 185 191 190 183 179 179 172
91 87 37 9 14 263 259 196 251 250 229 223 220 213 206 196 191 191 188 186 188 184 185 182 182 193 191 184 185 189 187 184 193 201 204 203 206 223 239 184 170 189 201 197 183 178 188 185 182
156 133 149 184 222 284 318 241 256 261 243 225 215 202 190 190 190 193 192 190 191 191 187 184 188 196 193 191 195 194 190 190 201 201 195 201 206 216 213 190 181 195 205 197 182 187 205 192 196
133 146 148 127 142 312 292 290 301 310 355 62 165 166 187 193 194 194 191 190 190 191 191 190 191 196 197 197 193 195 195 194 198 199 195 205 211 209 201 191 194 203 202 194 184 200 219 202 206
124 137 105 118 144 246 295 284 262 284 280 277 210 199 204 196 194 193 189 192 194 194 190 186 189 198 201 198 201 204 202 203 199 190 198 206 214 212 193 201 206 209 203 194 193 213 220 206 219
106 101 106 113 148 154 237 272 236 227 231 219 215 198 187 191 196 193 191 189 185 181 181 186 192 197 201 201 202 206 207 203 199 206 213 212 212 201 202 205 207 212 214 208 202 219 214 216 231
158 160 146 152 205 171 174 265 281 242 242 217 208 190 186 190 189 183 179 172 172 179 187 191 194 200 206 202 198 205 205 196 201 214 219 212 213 212 210 204 210 221 219 210 208 221 220 218 228